Regional Weather Roundup
Issued by NWS

Home | Current Version | Previous Version | Text Only | Print | Product List | Glossary Off
Versions: 1 2 3 4 5 6 7 8 9 10 11 12 13 14 15 16 17 18 19 20 21 22 23 24 25 26 27 28 29 30 31 32 33 34 35 36 37 38 39 40 41 42 43 44 45 46 47 48 49 50

000
ASUS43 KLMK 242110
RWRKY
KENTUCKY REGIONAL WEATHER ROUNDUP
NATIONAL WEATHER SERVICE LOUISVILLE KY
400 PM EST WED DEC 24 2014

NOTE "FAIR" INDICATES FEW OR NO CLOUDS BELOW 12,000 FEET
WITH NO SIGNIFICANT WEATHER AND/OR OBSTRUCTIONS TO VISIBILITY.

KYZ001>023-026-027-061>063-070>075-242200-
WESTERN AND SOUTH CENTRAL KENTUCKY

CITY           SKY/WX    TMP DP  RH WIND       PRES   REMARKS
PADUCAH        CLOUDY    42  36  79 W13       29.72R
HENDERSON      CLOUDY    43  37  81 W13       29.66R
OWENSBORO      CLOUDY    44  40  86 W12       29.66R
HOPKINSVILLE   CLOUDY    46  39  76 W16       29.70R
BOWLING GREEN  CLOUDY    46  39  76 W9        29.68R
GLASGOW        CLOUDY    43  40  88 W9G17     29.67R
$$

KYZ024-025-028>034-038-045-046-053-242200-
NORTH CENTRAL KENTUCKY

CITY           SKY/WX    TMP DP  RH WIND       PRES   REMARKS
LOUISVILLE/SDF CLOUDY    45  40  82 W18G24    29.59R
LOUISVILLE/LOU CLOUDY    44  39  82 W12G23    29.58R
FORT KNOX      CLOUDY    42  39  88 W12       29.59R
$$

KYZ035>037-039>044-047>052-055>060-089>105-242200-
NORTHEAST KENTUCKY

CITY           SKY/WX    TMP DP  RH WIND       PRES   REMARKS
LEXINGTON      LGT RAIN  45  42  89 SW17G28   29.55R
COVINGTON      RAIN      44  39  82 W16       29.44R
FRANKFORT      CLOUDY    44  41  89 W10G20    29.53R
$$

KYZ054-064>069-076>088-106>120-242200-
SOUTHEAST KENTUCKY

CITY           SKY/WX    TMP DP  RH WIND       PRES   REMARKS
JACKSON        CLOUDY    65  52  62 S10G23    29.44S
LONDON         CLOUDY    50  42  74 W16       29.56R
SOMERSET       CLOUDY    43  41  93 W21G29    29.62R
MIDDLESBORO    RAIN      60  56  87 S7        29.52R
MONTICELLO     CLOUDY    45  43  93 W13G21    29.66R FOG
$$




USA.gov is the U.S. government's official web portal to all federal, state and local government web resources and services.